| time (UTC) | temp F | wind direction | speed MPH | gust MPH | rain 1hr in | rain 24hr in | rain mn in | humidity % | barometer mb |
| 20260508053804 | 44 | 307 | 0.0 | 4.0 | 0.00 | 0.00 | 0.00 | 67 | 1011.1 |
| 20260508052802 | 44 | 304 | 0.0 | 0.0 | 0.00 | 0.00 | 0.00 | 67 | 1010.8 |
| 20260508051805 | 44 | 304 | 0.0 | 2.0 | 0.00 | 0.00 | 0.00 | 67 | 1010.8 |
| 20260508050759 | 44 | 304 | 0.0 | 4.0 | 0.00 | 0.00 | 0.00 | 69 | 1011.2 |
| 20260508045804 | 44 | 300 | 0.0 | 2.0 | 0.00 | 0.00 | 0.00 | 69 | 1011.0 |
| 20260508044801 | 44 | 296 | 0.0 | 0.0 | 0.00 | 0.00 | 0.00 | 73 | 1010.9 |
| 20260508043801 | 43 | 296 | 0.0 | 4.0 | 0.00 | 0.00 | 0.00 | 74 | 1011.1 |
| 20260508042802 | 43 | 313 | 0.0 | 4.0 | 0.00 | 0.00 | 0.00 | 76 | 1011.2 |
| 20260508041757 | 43 | 328 | 0.0 | 0.0 | 0.00 | 0.00 | 0.00 | 76 | 1011.0 |
| 20260508040800 | 43 | 328 | 0.0 | 0.0 | 0.00 | 0.00 | 0.00 | 75 | 1010.7 |
| 20260508035800 | 44 | 328 | 0.0 | 0.0 | 0.00 | 0.00 | 0.00 | 74 | 1010.7 |
| 20260508034756 | 44 | 328 | 0.0 | 0.0 | 0.00 | 0.00 | 0.00 | 72 | 1010.7 |
| 20260508033754 | 44 | 328 | 0.0 | 0.0 | 0.00 | 0.00 | 0.00 | 71 | 1010.7 |
| 20260508032756 | 44 | 328 | 0.0 | 0.0 | 0.00 | 0.00 | 0.00 | 69 | 1010.4 |
| 20260508031757 | 44 | 328 | 0.0 | 0.0 | 0.00 | 0.00 | 0.00 | 66 | 1010.6 |
| 20260508030757 | 44 | 328 | 0.0 | 0.0 | 0.00 | 0.00 | 0.00 | 67 | 1010.7 |
| 20260508025758 | 44 | 328 | 0.0 | 0.0 | 0.00 | 0.00 | 0.00 | 67 | 1011.0 |
| 20260508024803 | 44 | 328 | 0.0 | 0.0 | 0.00 | 0.00 | 0.00 | 67 | 1011.0 |
| 20260508023803 | 45 | 328 | 0.0 | 0.0 | 0.00 | 0.00 | 0.00 | 65 | 1011.0 |
| 20260508022749 | 45 | 328 | 0.0 | 0.0 | 0.00 | 0.00 | 0.00 | 64 | 1010.8 |
| 20260508021748 | 45 | 328 | 0.0 | 2.0 | 0.00 | 0.00 | 0.00 | 62 | 1010.9 |
| 20260508020752 | 45 | 328 | 0.0 | 0.0 | 0.00 | 0.00 | 0.00 | 62 | 1010.8 |
| 20260508015750 | 46 | 328 | 0.0 | 0.0 | 0.00 | 0.00 | 0.00 | 60 | 1010.7 |
| 20260508014750 | 47 | 328 | 0.0 | 4.0 | 0.00 | 0.00 | 0.00 | 57 | 1010.8 |
| 20260508013753 | 48 | 313 | 0.0 | 5.0 | 0.00 | 0.00 | 0.00 | 56 | 1010.7 |
| 20260508012748 | 48 | 284 | 0.0 | 4.0 | 0.00 | 0.00 | 0.00 | 54 | 1010.6 |
| 20260508011751 | 49 | 296 | 2.0 | 4.0 | 0.00 | 0.00 | 0.00 | 52 | 1010.4 |
| 20260508010746 | 49 | 308 | 2.0 | 5.0 | 0.00 | 0.00 | 0.00 | 50 | 1010.3 |
| 20260508005744 | 49 | 276 | 2.0 | 5.0 | 0.00 | 0.00 | 0.00 | 50 | 1010.3 |
| 20260508004746 | 50 | 251 | 0.0 | 5.0 | 0.00 | 0.00 | 0.00 | 49 | 1010.0 |
| 20260508003744 | 50 | 290 | 2.0 | 5.0 | 0.00 | 0.00 | 0.00 | 48 | 1010.0 |
| 20260508002742 | 51 | 283 | 2.0 | 7.0 | 0.00 | 0.00 | 0.00 | 47 | 1010.1 |
| 20260508001743 | 51 | 276 | 0.0 | 5.0 | 0.00 | 0.00 | 0.00 | 47 | 1010.1 |
| 20260508000742 | 51 | 290 | 2.0 | 5.0 | 0.00 | 0.00 | 0.00 | 46 | 1010.0 |
| 20260507235742 | 51 | 335 | 2.0 | 5.0 | 0.00 | 0.00 | 0.00 | 47 | 1009.9 |
| 20260507234741 | 51 | 320 | 2.0 | 7.0 | 0.00 | 0.00 | 0.00 | 46 | 1009.8 |
| 20260507233744 | 51 | 327 | 2.0 | 7.0 | 0.00 | 0.00 | 0.00 | 46 | 1009.9 |
| 20260507232747 | 51 | 349 | 4.0 | 11.0 | 0.00 | 0.00 | 0.00 | 45 | 1009.9 |
| 20260507231740 | 52 | 243 | 4.0 | 14.0 | 0.00 | 0.00 | 0.00 | 45 | 1009.9 |
| 20260507230740 | 53 | 350 | 4.0 | 11.0 | 0.00 | 0.00 | 0.00 | 44 | 1009.9 |
| 20260507225748 | 52 | 266 | 2.0 | 7.0 | 0.00 | 0.00 | 0.00 | 45 | 1009.9 |
| 20260507224738 | 52 | 355 | 2.0 | 7.0 | 0.00 | 0.00 | 0.00 | 45 | 1009.9 |
| 20260507223741 | 52 | 246 | 2.0 | 9.0 | 0.00 | 0.00 | 0.00 | 45 | 1009.9 |
| 20260507222739 | 52 | 215 | 4.0 | 9.0 | 0.00 | 0.00 | 0.00 | 45 | 1010.0 |
| 20260507221737 | 52 | 252 | 4.0 | 12.0 | 0.00 | 0.00 | 0.00 | 44 | 1010.2 |
| 20260507220735 | 53 | 272 | 4.0 | 9.0 | 0.00 | 0.00 | 0.00 | 42 | 1010.1 |
| 20260507215736 | 52 | 181 | 4.0 | 11.0 | 0.00 | 0.00 | 0.00 | 44 | 1010.0 |
| 20260507214731 | 53 | 316 | 4.0 | 16.0 | 0.00 | 0.00 | 0.00 | 44 | 1009.9 |
| 20260507213733 | 52 | 253 | 4.0 | 11.0 | 0.00 | 0.00 | 0.00 | 44 | 1010.0 |
| 20260507212731 | 52 | 111 | 2.0 | 12.0 | 0.00 | 0.00 | 0.00 | 44 | 1010.0 |
| 20260507211733 | 53 | 294 | 4.0 | 11.0 | 0.00 | 0.00 | 0.00 | 45 | 1010.0 |
| 20260507210732 | 53 | 239 | 2.0 | 11.0 | 0.00 | 0.00 | 0.00 | 43 | 1010.0 |
| 20260507205733 | 53 | 192 | 4.0 | 12.0 | 0.00 | 0.00 | 0.00 | 43 | 1010.0 |
| 20260507204726 | 53 | 69 | 5.0 | 14.0 | 0.00 | 0.00 | 0.00 | 43 | 1010.1 |
| 20260507203724 | 53 | 265 | 4.0 | 16.0 | 0.00 | 0.00 | 0.00 | 42 | 1009.9 |
| 20260507202725 | 52 | 254 | 4.0 | 14.0 | 0.00 | 0.00 | 0.00 | 43 | 1010.2 |
| 20260507201726 | 52 | 325 | 5.0 | 16.0 | 0.00 | 0.00 | 0.00 | 43 | 1010.4 |
| 20260507200727 | 51 | 319 | 4.0 | 12.0 | 0.00 | 0.00 | 0.00 | 44 | 1010.4 |
| 20260507195725 | 51 | 13 | 4.0 | 14.0 | 0.00 | 0.00 | 0.00 | 44 | 1010.5 |
| 20260507194726 | 51 | 252 | 5.0 | 16.0 | 0.00 | 0.00 | 0.00 | 43 | 1010.6 |
| 20260507193724 | 51 | 5 | 4.0 | 16.0 | 0.00 | 0.00 | 0.00 | 44 | 1010.6 |
| 20260507192741 | 54 | 281 | 4.0 | 9.0 | 0.00 | 0.00 | 0.00 | 41 | 1010.5 |
| 20260507191727 | 53 | 283 | 4.0 | 16.0 | 0.00 | 0.00 | 0.00 | 46 | 1010.6 |
| 20260507190721 | 52 | 213 | 2.0 | 11.0 | 0.00 | 0.00 | 0.00 | 44 | 1010.5 |
| 20260507185718 | 51 | 254 | 4.0 | 20.0 | 0.00 | 0.00 | 0.00 | 47 | 1010.7 |
| 20260507184721 | 51 | 323 | 4.0 | 16.0 | 0.00 | 0.00 | 0.00 | 47 | 1010.6 |
| 20260507183719 | 52 | 324 | 4.0 | 9.0 | 0.00 | 0.00 | 0.00 | 46 | 1010.6 |
| 20260507182717 | 52 | 240 | 5.0 | 16.0 | 0.00 | 0.00 | 0.00 | 47 | 1010.7 |
| 20260507181720 | 51 | 286 | 4.0 | 14.0 | 0.00 | 0.00 | 0.00 | 47 | 1010.8 |
| 20260507180721 | 51 | 229 | 4.0 | 14.0 | 0.00 | 0.00 | 0.00 | 45 | 1010.7 |
| 20260507175719 | 51 | 256 | 4.0 | 12.0 | 0.00 | 0.00 | 0.00 | 49 | 1010.8 |
| 20260507174713 | 51 | 326 | 4.0 | 14.0 | 0.00 | 0.00 | 0.00 | 48 | 1010.9 |
| 20260507173714 | 51 | 333 | 4.0 | 14.0 | 0.00 | 0.00 | 0.00 | 49 | 1010.9 |
| 20260507172715 | 51 | 305 | 4.0 | 11.0 | 0.00 | 0.00 | 0.00 | 48 | 1011.1 |
| 20260507171714 | 51 | 288 | 4.0 | 12.0 | 0.00 | 0.00 | 0.00 | 50 | 1011.1 |
| 20260507170714 | 51 | 329 | 4.0 | 16.0 | 0.00 | 0.00 | 0.00 | 50 | 1011.2 |
| 20260507165714 | 50 | 307 | 4.0 | 11.0 | 0.00 | 0.00 | 0.00 | 49 | 1011.3 |
| 20260507164712 | 52 | 331 | 4.0 | 16.0 | 0.00 | 0.00 | 0.00 | 47 | 1011.2 |
| 20260507163716 | 50 | 250 | 5.0 | 12.0 | 0.00 | 0.00 | 0.00 | 49 | 1011.2 |
| 20260507162713 | 51 | 0 | 4.0 | 9.0 | 0.00 | 0.00 | 0.00 | 50 | 1011.3 |
| 20260507161715 | 50 | 120 | 4.0 | 11.0 | 0.00 | 0.00 | 0.00 | 48 | 1011.1 |
| 20260507160713 | 51 | 334 | 4.0 | 14.0 | 0.00 | 0.00 | 0.00 | 48 | 1011.3 |
| 20260507155715 | 50 | 175 | 2.0 | 7.0 | 0.00 | 0.00 | 0.00 | 49 | 1011.2 |
| 20260507154714 | 51 | 315 | 2.0 | 5.0 | 0.00 | 0.00 | 0.00 | 47 | 1011.1 |
| 20260507153714 | 51 | 259 | 4.0 | 12.0 | 0.00 | 0.00 | 0.00 | 50 | 1011.1 |
| 20260507152717 | 52 | 246 | 4.0 | 9.0 | 0.00 | 0.00 | 0.00 | 48 | 1011.1 |
| 20260507151712 | 51 | 157 | 2.0 | 9.0 | 0.00 | 0.00 | 0.00 | 49 | 1011.0 |
| 20260507150716 | 50 | 338 | 4.0 | 11.0 | 0.00 | 0.00 | 0.00 | 50 | 1011.1 |
| 20260507145715 | 50 | 271 | 4.0 | 11.0 | 0.00 | 0.00 | 0.00 | 49 | 1011.2 |
| 20260507144716 | 51 | 161 | 2.0 | 7.0 | 0.00 | 0.00 | 0.00 | 49 | 1011.2 |
| 20260507143716 | 50 | 325 | 4.0 | 11.0 | 0.00 | 0.00 | 0.00 | 50 | 1011.2 |
| 20260507142712 | 51 | 218 | 4.0 | 9.0 | 0.00 | 0.00 | 0.00 | 49 | 1011.2 |
| 20260507141708 | 51 | 171 | 4.0 | 9.0 | 0.00 | 0.00 | 0.00 | 53 | 1011.1 |
| 20260507140709 | 50 | 207 | 2.0 | 7.0 | 0.00 | 0.00 | 0.00 | 52 | 1011.3 |
| 20260507135708 | 50 | 329 | 2.0 | 11.0 | 0.00 | 0.00 | 0.00 | 53 | 1011.4 |
| 20260507134710 | 49 | 177 | 2.0 | 7.0 | 0.00 | 0.00 | 0.00 | 54 | 1011.5 |
| 20260507133705 | 49 | 226 | 2.0 | 11.0 | 0.00 | 0.00 | 0.00 | 55 | 1011.5 |
| 20260507132706 | 48 | 215 | 2.0 | 9.0 | 0.00 | 0.00 | 0.00 | 55 | 1011.5 |
| 20260507131705 | 48 | 146 | 0.0 | 4.0 | 0.00 | 0.00 | 0.00 | 55 | 1011.5 |
| 20260507130702 | 48 | 188 | 2.0 | 7.0 | 0.00 | 0.00 | 0.00 | 57 | 1011.6 |
| 20260507125704 | 47 | 316 | 0.0 | 4.0 | 0.00 | 0.00 | 0.00 | 59 | 1011.5 |
| 20260507124703 | 47 | 223 | 0.0 | 2.0 | 0.00 | 0.00 | 0.00 | 62 | 1011.5 |
| 20260507123704 | 46 | 288 | 0.0 | 4.0 | 0.00 | 0.00 | 0.00 | 62 | 1011.5 |
| 20260507122702 | 45 | 213 | 0.0 | 4.0 | 0.00 | 0.00 | 0.00 | 66 | 1011.5 |
| 20260507121707 | 44 | 319 | 0.0 | 4.0 | 0.00 | 0.00 | 0.00 | 71 | 1011.5 |
| 20260507120658 | 42 | 314 | 0.0 | 0.0 | 0.00 | 0.00 | 0.00 | 76 | 1011.6 |
| 20260507115658 | 41 | 314 | 0.0 | 2.0 | 0.00 | 0.00 | 0.00 | 82 | 1011.7 |
| 20260507114657 | 38 | 314 | 0.0 | 0.0 | 0.00 | 0.00 | 0.00 | 86 | 1011.6 |
| 20260507113657 | 37 | 314 | 0.0 | 0.0 | 0.00 | 0.00 | 0.00 | 83 | 1011.5 |
| 20260507112658 | 36 | 314 | 0.0 | 0.0 | 0.00 | 0.00 | 0.00 | 82 | 1011.4 |
| 20260507111658 | 36 | 314 | 0.0 | 0.0 | 0.00 | 0.00 | 0.00 | 82 | 1011.4 |
| 20260507110700 | 37 | 314 | 0.0 | 0.0 | 0.00 | 0.00 | 0.00 | 82 | 1011.3 |
| 20260507105654 | 37 | 314 | 0.0 | 0.0 | 0.00 | 0.00 | 0.00 | 82 | 1011.2 |
| 20260507104658 | 37 | 314 | 0.0 | 0.0 | 0.00 | 0.00 | 0.00 | 81 | 1011.2 |
| 20260507103652 | 37 | 314 | 0.0 | 0.0 | 0.00 | 0.00 | 0.00 | 81 | 1011.1 |
| 20260507102655 | 37 | 314 | 0.0 | 0.0 | 0.00 | 0.00 | 0.00 | 80 | 1011.0 |
| 20260507101659 | 37 | 314 | 0.0 | 0.0 | 0.00 | 0.00 | 0.00 | 80 | 1011.0 |
| 20260507100656 | 38 | 314 | 0.0 | 0.0 | 0.00 | 0.00 | 0.00 | 80 | 1011.0 |
| 20260507095700 | 38 | 314 | 0.0 | 0.0 | 0.00 | 0.00 | 0.00 | 79 | 1011.1 |
| 20260507094655 | 38 | 314 | 0.0 | 0.0 | 0.00 | 0.00 | 0.00 | 79 | 1011.1 |
| 20260507093712 | 38 | 314 | 0.0 | 0.0 | 0.00 | 0.00 | 0.00 | 78 | 1011.2 |
| 20260507092657 | 38 | 314 | 0.0 | 0.0 | 0.00 | 0.00 | 0.00 | 78 | 1011.1 |
| 20260507091658 | 38 | 314 | 0.0 | 0.0 | 0.00 | 0.00 | 0.00 | 78 | 1011.2 |
| 20260507090652 | 38 | 314 | 0.0 | 0.0 | 0.00 | 0.00 | 0.00 | 78 | 1011.2 |
| 20260507085655 | 38 | 314 | 0.0 | 0.0 | 0.00 | 0.00 | 0.00 | 78 | 1011.4 |
| 20260507084654 | 38 | 314 | 0.0 | 0.0 | 0.00 | 0.00 | 0.00 | 76 | 1011.4 |
| 20260507083658 | 38 | 314 | 0.0 | 0.0 | 0.00 | 0.00 | 0.00 | 76 | 1011.4 |
| 20260507082654 | 39 | 314 | 0.0 | 0.0 | 0.00 | 0.00 | 0.00 | 76 | 1011.3 |
| 20260507081651 | 39 | 314 | 0.0 | 0.0 | 0.00 | 0.00 | 0.00 | 75 | 1011.3 |
| 20260507080657 | 39 | 314 | 0.0 | 0.0 | 0.00 | 0.00 | 0.00 | 74 | 1011.3 |
| 20260507075654 | 39 | 314 | 0.0 | 0.0 | 0.00 | 0.00 | 0.00 | 73 | 1011.2 |
| 20260507074652 | 40 | 314 | 0.0 | 0.0 | 0.00 | 0.00 | 0.00 | 71 | 1011.2 |
| 20260507073649 | 40 | 314 | 0.0 | 0.0 | 0.00 | 0.00 | 0.00 | 70 | 1011.2 |
| 20260507072653 | 41 | 314 | 0.0 | 0.0 | 0.00 | 0.00 | 0.00 | 69 | 1011.3 |
| 20260507071650 | 41 | 314 | 0.0 | 0.0 | 0.00 | 0.00 | 0.00 | 68 | 1011.3 |
| 20260507070648 | 41 | 314 | 0.0 | 0.0 | 0.00 | 0.00 | 0.00 | 68 | 1011.4 |
| 20260507065646 | 42 | 314 | 0.0 | 0.0 | 0.00 | 0.00 | 0.00 | 67 | 1011.4 |
| 20260507064649 | 42 | 314 | 0.0 | 0.0 | 0.00 | 0.00 | 0.00 | 67 | 1011.3 |
| 20260507063645 | 42 | 314 | 0.0 | 0.0 | 0.00 | 0.00 | 0.00 | 67 | 1011.4 |
| 20260507062652 | 42 | 314 | 0.0 | 0.0 | 0.00 | 0.00 | 0.00 | 66 | 1011.4 |
| 20260507061643 | 43 | 314 | 0.0 | 0.0 | 0.00 | 0.00 | 0.00 | 65 | 1011.5 |
| 20260507060642 | 44 | 314 | 0.0 | 0.0 | 0.00 | 0.00 | 0.00 | 64 | 1011.6 |
| 20260507055640 | 44 | 314 | 0.0 | 2.0 | 0.00 | 0.00 | 0.00 | 62 | 1011.5 |
| 20260507054644 | 45 | 314 | 0.0 | 0.0 | 0.00 | 0.00 | 0.00 | 61 | 1011.5 |